| time (UTC) | temp F | wind direction | speed MPH | gust MPH | rain 1hr in | rain 24hr in | rain mn in | humidity % | barometer mb |
| 20260506153359 | 52 | 12 | 0.0 | 8.0 | 0.08 | 1.40 | 1.03 | 94 | 1014.4 |
| 20260506152858 | 52 | 9 | 3.0 | 9.0 | 0.09 | 1.49 | 1.03 | 94 | 1014.1 |
| 20260506152359 | 52 | 14 | 3.0 | 9.0 | 0.10 | 1.50 | 1.02 | 94 | 1014.4 |
| 20260506151859 | 52 | 19 | 4.0 | 8.0 | 0.10 | 1.51 | 1.01 | 94 | 1014.0 |
| 20260506151359 | 52 | 44 | 2.0 | 8.0 | 0.11 | 1.52 | 1.00 | 94 | 1014.0 |
| 20260506150858 | 52 | 338 | 2.0 | 6.0 | 0.10 | 1.53 | 0.98 | 94 | 1014.2 |
| 20260506150359 | 52 | 35 | 5.0 | 6.0 | 0.11 | 1.56 | 0.98 | 94 | 1013.9 |
| 20260506145858 | 52 | 340 | 2.0 | 9.0 | 0.13 | 1.61 | 0.98 | 94 | 1014.1 |
| 20260506145359 | 52 | 328 | 3.0 | 9.0 | 0.13 | 1.63 | 0.98 | 94 | 1014.2 |
| 20260506144359 | 52 | 219 | 0.0 | 5.0 | 0.13 | 1.66 | 0.97 | 94 | 1014.5 |
| 20260506143858 | 52 | 29 | 0.0 | 5.0 | 0.13 | 1.67 | 0.96 | 94 | 1013.8 |
| 20260506143358 | 52 | 342 | 0.0 | 7.0 | 0.12 | 1.68 | 0.95 | 94 | 1014.2 |
| 20260506142858 | 52 | 59 | 0.0 | 7.0 | 0.11 | 1.68 | 0.94 | 94 | 1013.5 |
| 20260506142358 | 52 | 30 | 2.0 | 4.0 | 0.09 | 1.69 | 0.92 | 94 | 1014.1 |
| 20260506141858 | 52 | 12 | 0.0 | 2.0 | 0.08 | 1.70 | 0.91 | 94 | 1014.3 |
| 20260506141358 | 52 | 43 | 1.0 | 3.0 | 0.06 | 1.73 | 0.89 | 94 | 1013.7 |
| 20260506140858 | 52 | 162 | 1.0 | 3.0 | 0.05 | 1.74 | 0.88 | 94 | 1013.7 |
| 20260506140358 | 52 | 25 | 0.0 | 4.0 | 0.04 | 1.74 | 0.87 | 94 | 1014.0 |
| 20260506135858 | 52 | 117 | 1.0 | 5.0 | 0.02 | 1.74 | 0.85 | 94 | 1013.8 |
| 20260506135358 | 52 | 304 | 1.0 | 5.0 | 0.02 | 1.76 | 0.85 | 94 | 1014.1 |
| 20260506134858 | 52 | 355 | 4.0 | 8.0 | 0.01 | 1.76 | 0.84 | 94 | 1013.9 |
| 20260506134358 | 52 | 355 | 1.0 | 8.0 | 0.01 | 1.76 | 0.84 | 94 | 1013.5 |
| 20260506133858 | 52 | 33 | 1.0 | 6.0 | 0.00 | 1.77 | 0.83 | 94 | 1013.0 |
| 20260506133358 | 52 | 108 | 6.0 | 9.0 | 0.00 | 1.79 | 0.83 | 94 | 1013.2 |
| 20260506132358 | 52 | 63 | 0.0 | 5.0 | 0.00 | 1.84 | 0.83 | 94 | 1012.8 |
| 20260506131858 | 52 | 19 | 2.0 | 5.0 | 0.00 | 1.85 | 0.83 | 94 | 1013.3 |
| 20260506130858 | 52 | 15 | 2.0 | 5.0 | 0.00 | 1.85 | 0.83 | 94 | 1013.0 |
| 20260506130357 | 52 | 26 | 2.0 | 6.0 | 0.00 | 1.85 | 0.83 | 94 | 1012.6 |
| 20260506125857 | 52 | 40 | 0.0 | 6.0 | 0.00 | 1.85 | 0.83 | 94 | 1012.9 |
| 20260506125357 | 52 | 26 | 1.0 | 5.0 | 0.00 | 1.85 | 0.83 | 94 | 1012.9 |
| 20260506124857 | 52 | 343 | 0.0 | 5.0 | 0.00 | 1.85 | 0.83 | 94 | 1012.9 |
| 20260506124357 | 52 | 45 | 2.0 | 5.0 | 0.00 | 1.85 | 0.83 | 94 | 1012.1 |
| 20260506123857 | 52 | 83 | 0.0 | 4.0 | 0.00 | 1.85 | 0.83 | 94 | 1011.6 |
| 20260506123357 | 52 | 314 | 0.0 | 5.0 | 0.00 | 1.85 | 0.83 | 94 | 1012.5 |
| 20260506122857 | 52 | 31 | 3.0 | 5.0 | 0.00 | 1.85 | 0.83 | 94 | 1011.8 |
| 20260506122357 | 52 | 38 | 1.0 | 8.0 | 0.00 | 1.85 | 0.83 | 94 | 1011.7 |
| 20260506121857 | 52 | 14 | 4.0 | 8.0 | 0.00 | 1.85 | 0.83 | 94 | 1011.9 |
| 20260506121357 | 52 | 44 | 2.0 | 4.0 | 0.00 | 1.85 | 0.83 | 94 | 1012.0 |
| 20260506120856 | 52 | 47 | 3.0 | 4.0 | 0.00 | 1.85 | 0.83 | 94 | 1011.8 |
| 20260506120357 | 52 | 46 | 2.0 | 6.0 | 0.00 | 1.85 | 0.83 | 95 | 1011.9 |
| 20260506115857 | 52 | 5 | 2.0 | 6.0 | 0.00 | 1.85 | 0.83 | 94 | 1011.5 |
| 20260506115357 | 52 | 46 | 0.0 | 6.0 | 0.01 | 1.85 | 0.83 | 95 | 1011.5 |
| 20260506114856 | 52 | 55 | 2.0 | 6.0 | 0.03 | 1.85 | 0.83 | 95 | 1011.3 |
| 20260506114356 | 52 | 30 | 1.0 | 7.0 | 0.05 | 1.85 | 0.83 | 95 | 1011.3 |
| 20260506113356 | 52 | 17 | 3.0 | 8.0 | 0.09 | 1.85 | 0.83 | 95 | 1011.5 |
| 20260506112856 | 52 | 286 | 1.0 | 5.0 | 0.10 | 1.85 | 0.83 | 95 | 1011.4 |
| 20260506111856 | 52 | 340 | 3.0 | 4.0 | 0.12 | 1.85 | 0.83 | 95 | 1010.9 |
| 20260506111356 | 52 | 30 | 0.0 | 6.0 | 0.15 | 1.85 | 0.83 | 95 | 1011.0 |
| 20260506110856 | 52 | 46 | 2.0 | 6.0 | 0.17 | 1.85 | 0.83 | 95 | 1010.8 |
| 20260506110356 | 52 | 117 | 2.0 | 9.0 | 0.18 | 1.85 | 0.83 | 95 | 1010.9 |
| 20260506105856 | 52 | 125 | 4.0 | 9.0 | 0.19 | 1.85 | 0.83 | 95 | 1010.8 |
| 20260506105356 | 52 | 44 | 9.0 | 9.0 | 0.20 | 1.84 | 0.82 | 95 | 1010.7 |
| 20260506104856 | 52 | 5 | 3.0 | 9.0 | 0.19 | 1.82 | 0.80 | 94 | 1010.2 |
| 20260506104356 | 52 | 33 | 6.0 | 6.0 | 0.18 | 1.80 | 0.78 | 94 | 1010.4 |
| 20260506103855 | 52 | 26 | 0.0 | 6.0 | 0.16 | 1.77 | 0.75 | 94 | 1011.6 |
| 20260506103356 | 52 | 338 | 0.0 | 6.0 | 0.16 | 1.76 | 0.74 | 95 | 1011.9 |
| 20260506102856 | 52 | 318 | 1.0 | 4.0 | 0.16 | 1.75 | 0.73 | 95 | 1011.2 |
| 20260506102356 | 52 | 80 | 2.0 | 4.0 | 0.15 | 1.74 | 0.72 | 94 | 1010.9 |
| 20260506101355 | 52 | 146 | 0.0 | 6.0 | 0.13 | 1.70 | 0.68 | 94 | 1011.2 |
| 20260506100856 | 52 | 156 | 1.0 | 9.0 | 0.11 | 1.68 | 0.66 | 94 | 1010.7 |
| 20260506095356 | 52 | 317 | 2.0 | 8.0 | 0.08 | 1.64 | 0.62 | 94 | 1010.9 |
| 20260506094855 | 52 | 355 | 4.0 | 8.0 | 0.07 | 1.63 | 0.61 | 94 | 1010.5 |
| 20260506094355 | 53 | 12 | 5.0 | 6.0 | 0.06 | 1.62 | 0.60 | 94 | 1011.0 |
| 20260506093855 | 53 | 72 | 0.0 | 10.0 | 0.05 | 1.61 | 0.59 | 94 | 1011.3 |
| 20260506093355 | 53 | 48 | 2.0 | 10.0 | 0.04 | 1.60 | 0.58 | 94 | 1009.8 |
| 20260506092855 | 53 | 22 | 10.0 | 10.0 | 0.04 | 1.59 | 0.57 | 94 | 1009.4 |
| 20260506092355 | 53 | 37 | 2.0 | 10.0 | 0.05 | 1.59 | 0.57 | 94 | 1009.9 |
| 20260506091855 | 53 | 355 | 3.0 | 10.0 | 0.12 | 1.58 | 0.56 | 94 | 1009.7 |
| 20260506091354 | 53 | 19 | 7.0 | 9.0 | 0.15 | 1.57 | 0.55 | 94 | 1008.8 |
| 20260506090854 | 53 | 31 | 4.0 | 9.0 | 0.21 | 1.57 | 0.55 | 94 | 1009.6 |
| 20260506090355 | 53 | 5 | 2.0 | 9.0 | 0.22 | 1.56 | 0.54 | 94 | 1009.7 |
| 20260506085854 | 54 | 5 | 3.0 | 6.0 | 0.24 | 1.56 | 0.54 | 94 | 1009.7 |
| 20260506085355 | 54 | 42 | 3.0 | 5.0 | 0.26 | 1.56 | 0.54 | 94 | 1009.4 |
| 20260506084854 | 54 | 58 | 2.0 | 5.0 | 0.27 | 1.56 | 0.54 | 94 | 1009.1 |
| 20260506084354 | 53 | 42 | 2.0 | 5.0 | 0.28 | 1.56 | 0.54 | 94 | 1009.2 |
| 20260506083354 | 53 | 74 | 2.0 | 9.0 | 0.30 | 1.56 | 0.54 | 94 | 1007.9 |
| 20260506082853 | 53 | 34 | 3.0 | 8.0 | 0.29 | 1.55 | 0.53 | 94 | 1008.0 |
| 20260506081853 | 53 | 139 | 2.0 | 8.0 | 0.21 | 1.46 | 0.44 | 94 | 1009.2 |
| 20260506081353 | 53 | 173 | 0.0 | 9.0 | 0.18 | 1.42 | 0.40 | 94 | 1008.4 |
| 20260506080853 | 53 | 17 | 3.0 | 11.0 | 0.12 | 1.36 | 0.34 | 94 | 1010.0 |
| 20260506073353 | 54 | 27 | 8.0 | 15.0 | 0.16 | 1.26 | 0.24 | 93 | 1008.3 |
| 20260506072852 | 54 | 43 | 5.0 | 15.0 | 0.18 | 1.26 | 0.24 | 93 | 1008.5 |
| 20260506072352 | 54 | 19 | 10.0 | 10.0 | 0.23 | 1.26 | 0.24 | 93 | 1008.7 |
| 20260506071353 | 54 | 21 | 4.0 | 9.0 | 0.21 | 1.24 | 0.22 | 93 | 1008.1 |
| 20260506070853 | 55 | 32 | 3.0 | 8.0 | 0.21 | 1.24 | 0.22 | 92 | 1008.0 |
| 20260506070352 | 55 | 21 | 5.0 | 11.0 | 0.22 | 1.24 | 0.22 | 92 | 1008.0 |
| 20260506062352 | 62 | 310 | 0.0 | 4.0 | 0.01 | 1.03 | 0.01 | 89 | 1007.7 |
| 20260506061852 | 63 | 299 | 2.0 | 10.0 | 0.01 | 1.03 | 0.01 | 87 | 1007.6 |
| 20260506061351 | 65 | 323 | 3.0 | 13.0 | 0.01 | 1.03 | 0.01 | 86 | 1007.6 |
| 20260506060852 | 67 | 19 | 3.0 | 16.0 | 0.01 | 1.03 | 0.01 | 82 | 1006.9 |
| 20260506060352 | 71 | 360 | 5.0 | 16.0 | 0.00 | 1.02 | 0.00 | 84 | 1008.0 |
| 20260506051350 | 70 | 188 | 3.0 | 10.0 | 0.00 | 1.02 | 0.00 | 86 | 1006.1 |
| 20260506050851 | 70 | 188 | 2.0 | 10.0 | 0.00 | 1.02 | 0.00 | 86 | 1006.2 |
| 20260506050350 | 70 | 193 | 5.0 | 9.0 | 0.00 | 1.02 | 0.00 | 86 | 1006.6 |
| 20260506044920 | 70 | 198 | 7.0 | 11.0 | 0.00 | 1.02 | 1.02 | 85 | 1006.4 |
| 20260506044420 | 70 | 225 | 3.0 | 11.0 | 0.00 | 1.02 | 1.02 | 85 | 1006.3 |
| 20260506043920 | 70 | 201 | 4.0 | 11.0 | 0.00 | 1.02 | 1.02 | 85 | 1006.6 |
| 20260506043420 | 70 | 162 | 4.0 | 11.0 | 0.00 | 1.02 | 1.02 | 85 | 1006.9 |
| 20260506042920 | 70 | 199 | 5.0 | 13.0 | 0.00 | 1.02 | 1.02 | 86 | 1007.1 |
| 20260506042420 | 70 | 244 | 3.0 | 13.0 | 0.00 | 1.02 | 1.02 | 85 | 1006.6 |
| 20260506041920 | 70 | 226 | 3.0 | 9.0 | 0.00 | 1.02 | 1.02 | 85 | 1006.8 |
| 20260506041420 | 70 | 202 | 2.0 | 9.0 | 0.00 | 1.02 | 1.02 | 85 | 1007.0 |
| 20260506040419 | 70 | 144 | 2.0 | 8.0 | 0.00 | 1.02 | 1.02 | 85 | 1007.1 |
| 20260506035919 | 70 | 192 | 3.0 | 8.0 | 0.00 | 1.02 | 1.02 | 85 | 1007.2 |
| 20260506035420 | 70 | 185 | 5.0 | 8.0 | 0.00 | 1.02 | 1.02 | 85 | 1007.4 |
| 20260506034920 | 70 | 197 | 4.0 | 8.0 | 0.00 | 1.02 | 1.02 | 86 | 1007.6 |
| 20260506034420 | 70 | 206 | 2.0 | 9.0 | 0.00 | 1.02 | 1.02 | 86 | 1007.5 |
| 20260506033920 | 70 | 178 | 5.0 | 9.0 | 0.00 | 1.02 | 1.02 | 86 | 1007.5 |
| 20260506033420 | 70 | 188 | 4.0 | 10.0 | 0.00 | 1.02 | 1.02 | 86 | 1007.5 |
| 20260506032920 | 70 | 175 | 3.0 | 10.0 | 0.00 | 1.02 | 1.02 | 86 | 1007.3 |
| 20260506031919 | 69 | 204 | 5.0 | 9.0 | 0.00 | 1.02 | 1.02 | 86 | 1007.2 |
| 20260506031420 | 70 | 247 | 2.0 | 6.0 | 0.00 | 1.02 | 1.02 | 86 | 1007.4 |
| 20260506030920 | 70 | 186 | 2.0 | 8.0 | 0.00 | 1.02 | 1.02 | 86 | 1007.3 |
| 20260506030420 | 70 | 234 | 3.0 | 8.0 | 0.00 | 1.02 | 1.02 | 86 | 1007.5 |
| 20260506025919 | 70 | 179 | 5.0 | 8.0 | 0.00 | 1.02 | 1.02 | 86 | 1007.5 |
| 20260506025420 | 70 | 191 | 2.0 | 8.0 | 0.00 | 1.02 | 1.02 | 86 | 1007.5 |
| 20260506024920 | 70 | 208 | 5.0 | 8.0 | 0.00 | 1.02 | 1.02 | 86 | 1007.4 |
| 20260506023920 | 70 | 225 | 1.0 | 11.0 | 0.00 | 1.02 | 1.02 | 87 | 1007.5 |
| 20260506023419 | 70 | 183 | 6.0 | 11.0 | 0.00 | 1.02 | 1.02 | 87 | 1007.6 |
| 20260506022419 | 70 | 205 | 4.0 | 11.0 | 0.00 | 1.02 | 1.02 | 87 | 1007.4 |
| 20260506021919 | 70 | 189 | 3.0 | 11.0 | 0.00 | 1.02 | 1.02 | 87 | 1007.2 |
| 20260506021419 | 70 | 187 | 4.0 | 12.0 | 0.00 | 1.02 | 1.02 | 87 | 1007.2 |
| 20260506020919 | 70 | 219 | 3.0 | 12.0 | 0.00 | 1.02 | 1.02 | 87 | 1007.1 |
| 20260506020419 | 70 | 209 | 3.0 | 10.0 | 0.00 | 1.02 | 1.02 | 87 | 1007.1 |
| 20260506015919 | 70 | 187 | 5.0 | 9.0 | 0.00 | 1.02 | 1.02 | 88 | 1007.1 |
| 20260506015419 | 70 | 202 | 1.0 | 8.0 | 0.00 | 1.02 | 1.02 | 88 | 1007.1 |
| 20260506014918 | 70 | 194 | 4.0 | 8.0 | 0.00 | 1.02 | 1.02 | 88 | 1006.9 |
| 20260506014419 | 70 | 180 | 2.0 | 8.0 | 0.00 | 1.02 | 1.02 | 88 | 1007.0 |
| 20260506013919 | 70 | 158 | 5.0 | 9.0 | 0.00 | 1.02 | 1.02 | 88 | 1007.1 |
| 20260506013418 | 70 | 200 | 3.0 | 9.0 | 0.00 | 1.02 | 1.02 | 89 | 1007.0 |
| 20260506012918 | 70 | 190 | 8.0 | 11.0 | 0.00 | 1.02 | 1.02 | 89 | 1007.0 |
| 20260506012418 | 70 | 184 | 1.0 | 11.0 | 0.00 | 1.02 | 1.02 | 89 | 1007.0 |
| 20260506011918 | 70 | 207 | 4.0 | 7.0 | 0.00 | 1.02 | 1.02 | 89 | 1006.8 |
| 20260506011418 | 70 | 208 | 3.0 | 10.0 | 0.00 | 1.02 | 1.02 | 89 | 1006.9 |
| 20260506010918 | 70 | 209 | 2.0 | 10.0 | 0.00 | 1.02 | 1.02 | 89 | 1006.9 |
| 20260506005918 | 69 | 163 | 2.0 | 7.0 | 0.00 | 1.02 | 1.02 | 89 | 1006.7 |
| 20260506005418 | 70 | 226 | 2.0 | 11.0 | 0.00 | 1.02 | 1.02 | 89 | 1006.8 |
| 20260506004918 | 70 | 208 | 2.0 | 11.0 | 0.00 | 1.02 | 1.02 | 89 | 1006.5 |
| 20260506004418 | 70 | 207 | 6.0 | 11.0 | 0.00 | 1.02 | 1.02 | 89 | 1006.6 |
| 20260506002918 | 69 | 194 | 5.0 | 7.0 | 0.00 | 1.02 | 1.02 | 90 | 1006.8 |
| 20260506002417 | 69 | 211 | 2.0 | 6.0 | 0.00 | 1.02 | 1.02 | 90 | 1007.0 |
| 20260506001917 | 69 | 207 | 3.0 | 6.0 | 0.00 | 1.02 | 1.02 | 90 | 1007.0 |
| 20260506001417 | 69 | 215 | 5.0 | 8.0 | 0.00 | 1.02 | 1.02 | 91 | 1006.9 |
| 20260506000917 | 69 | 195 | 1.0 | 9.0 | 0.00 | 1.02 | 1.02 | 90 | 1006.7 |
| 20260506000417 | 69 | 185 | 3.0 | 9.0 | 0.00 | 1.02 | 1.02 | 91 | 1006.5 |
| 20260505235917 | 69 | 195 | 3.0 | 8.0 | 0.00 | 1.02 | 1.02 | 91 | 1006.6 |
| 20260505235417 | 69 | 190 | 3.0 | 8.0 | 0.00 | 1.02 | 1.02 | 91 | 1006.4 |
| 20260505234417 | 69 | 189 | 2.0 | 7.0 | 0.00 | 1.02 | 1.02 | 91 | 1006.7 |
| 20260505233917 | 69 | 220 | 4.0 | 6.0 | 0.00 | 1.02 | 1.02 | 91 | 1006.9 |
| 20260505233417 | 69 | 199 | 0.0 | 4.0 | 0.00 | 1.02 | 1.02 | 92 | 1007.0 |
| 20260505232917 | 69 | 278 | 0.0 | 4.0 | 0.00 | 1.02 | 1.02 | 92 | 1007.0 |
| 20260505231910 | 69 | 158 | 1.0 | 6.0 | 0.00 | 1.02 | 1.02 | 92 | 1006.9 |
| 20260505231410 | 68 | 196 | 3.0 | 8.0 | 0.00 | 1.02 | 1.02 | 91 | 1006.9 |
| 20260505230910 | 68 | 174 | 3.0 | 8.0 | 0.00 | 1.02 | 1.02 | 92 | 1007.0 |
| 20260505225910 | 68 | 204 | 4.0 | 7.0 | 0.00 | 1.02 | 1.02 | 92 | 1007.1 |
| 20260505225410 | 68 | 195 | 0.0 | 4.0 | 0.00 | 1.02 | 1.02 | 92 | 1007.0 |
| 20260505224910 | 68 | 183 | 3.0 | 4.0 | 0.00 | 1.02 | 1.02 | 92 | 1007.0 |
| 20260505224410 | 68 | 223 | 0.0 | 4.0 | 0.00 | 1.02 | 1.02 | 92 | 1007.0 |
| 20260505223910 | 68 | 186 | 2.0 | 3.0 | 0.00 | 1.02 | 1.02 | 92 | 1007.0 |
| 20260505223410 | 68 | 186 | 0.0 | 6.0 | 0.00 | 1.02 | 1.02 | 92 | 1007.0 |
| 20260505222910 | 68 | 187 | 1.0 | 7.0 | 0.00 | 1.02 | 1.02 | 92 | 1006.9 |
| 20260505222410 | 68 | 163 | 1.0 | 7.0 | 0.00 | 1.02 | 1.02 | 92 | 1006.8 |
| 20260505221410 | 67 | 213 | 1.0 | 8.0 | 0.00 | 1.02 | 1.02 | 93 | 1006.8 |
| 20260505220910 | 67 | 153 | 3.0 | 8.0 | 0.00 | 1.02 | 1.02 | 93 | 1006.9 |
| 20260505215910 | 67 | 183 | 3.0 | 6.0 | 0.01 | 1.02 | 1.02 | 93 | 1007.1 |
| 20260505215410 | 66 | 188 | 3.0 | 8.0 | 0.01 | 1.02 | 1.02 | 93 | 1007.1 |
| 20260505214909 | 66 | 175 | 1.0 | 8.0 | 0.01 | 1.02 | 1.02 | 93 | 1007.3 |
| 20260505214409 | 66 | 200 | 5.0 | 8.0 | 0.01 | 1.02 | 1.02 | 93 | 1007.3 |
| 20260505213909 | 66 | 178 | 1.0 | 8.0 | 0.01 | 1.02 | 1.02 | 93 | 1007.4 |
| 20260505213408 | 66 | 195 | 2.0 | 8.0 | 0.01 | 1.02 | 1.02 | 93 | 1007.5 |
| 20260505212408 | 66 | 175 | 3.0 | 9.0 | 0.01 | 1.02 | 1.02 | 93 | 1007.6 |
| 20260505211907 | 66 | 196 | 1.0 | 9.0 | 0.01 | 1.02 | 1.02 | 93 | 1007.6 |
| 20260505211407 | 66 | 173 | 3.0 | 7.0 | 0.01 | 1.02 | 1.02 | 93 | 1007.7 |
| 20260505210907 | 66 | 168 | 4.0 | 7.0 | 0.01 | 1.02 | 1.02 | 93 | 1007.7 |
| 20260505210406 | 66 | 183 | 2.0 | 11.0 | 0.00 | 1.01 | 1.01 | 93 | 1007.7 |
| 20260505205906 | 66 | 193 | 1.0 | 11.0 | 0.00 | 1.01 | 1.01 | 93 | 1007.7 |
| 20260505205406 | 65 | 155 | 1.0 | 10.0 | 0.00 | 1.01 | 1.01 | 93 | 1007.6 |
| 20260505204406 | 65 | 192 | 4.0 | 9.0 | 0.00 | 1.01 | 1.01 | 93 | 1007.8 |
| 20260505203906 | 65 | 175 | 1.0 | 9.0 | 0.00 | 1.01 | 1.01 | 93 | 1007.7 |
| 20260505202905 | 65 | 142 | 4.0 | 6.0 | 0.00 | 1.01 | 1.01 | 93 | 1007.7 |
| 20260505202405 | 65 | 228 | 4.0 | 7.0 | 0.00 | 1.01 | 1.01 | 93 | 1007.7 |
| 20260505201905 | 65 | 193 | 5.0 | 9.0 | 0.00 | 1.01 | 1.01 | 92 | 1007.9 |
| 20260505201404 | 65 | 177 | 7.0 | 11.0 | 0.00 | 1.01 | 1.01 | 92 | 1007.8 |
| 20260505200904 | 66 | 215 | 7.0 | 11.0 | 0.00 | 1.01 | 1.01 | 92 | 1008.0 |
| 20260505200404 | 66 | 191 | 4.0 | 10.0 | 0.00 | 1.01 | 1.01 | 92 | 1008.0 |
| 20260505195403 | 66 | 214 | 3.0 | 8.0 | 0.00 | 1.01 | 1.01 | 92 | 1008.0 |
| 20260505194903 | 66 | 200 | 4.0 | 9.0 | 0.00 | 1.01 | 1.01 | 92 | 1007.9 |
| 20260505194403 | 66 | 166 | 3.0 | 9.0 | 0.00 | 1.01 | 1.01 | 92 | 1007.9 |
| 20260505193903 | 66 | 196 | 2.0 | 9.0 | 0.00 | 1.01 | 1.01 | 92 | 1007.9 |
| 20260505193403 | 66 | 177 | 3.0 | 9.0 | 0.00 | 1.01 | 1.01 | 92 | 1008.0 |
| 20260505192902 | 66 | 192 | 4.0 | 8.0 | 0.00 | 1.01 | 1.01 | 92 | 1008.0 |
| 20260505192401 | 65 | 184 | 3.0 | 8.0 | 0.00 | 1.01 | 1.01 | 92 | 1008.0 |
| 20260505191901 | 65 | 200 | 3.0 | 9.0 | 0.00 | 1.01 | 1.01 | 92 | 1008.1 |
| 20260505191401 | 65 | 187 | 3.0 | 13.0 | 0.00 | 1.01 | 1.01 | 92 | 1008.1 |
| 20260505190901 | 65 | 169 | 4.0 | 13.0 | 0.00 | 1.01 | 1.01 | 92 | 1008.1 |
| 20260505190400 | 65 | 219 | 4.0 | 12.0 | 0.00 | 1.01 | 1.01 | 92 | 1008.1 |
| 20260505185900 | 65 | 156 | 3.0 | 9.0 | 0.00 | 1.01 | 1.01 | 93 | 1008.1 |
| 20260505185400 | 64 | 187 | 4.0 | 9.0 | 0.00 | 1.01 | 1.01 | 93 | 1008.2 |
| 20260505184400 | 64 | 232 | 3.0 | 11.0 | 0.00 | 1.01 | 1.01 | 93 | 1008.3 |
| 20260505183859 | 64 | 202 | 6.0 | 9.0 | 0.00 | 1.01 | 1.01 | 93 | 1008.3 |
| 20260505182859 | 63 | 205 | 6.0 | 10.0 | 0.00 | 1.01 | 1.01 | 93 | 1008.4 |
| 20260505181858 | 63 | 190 | 4.0 | 10.0 | 0.00 | 1.01 | 1.01 | 93 | 1008.7 |
| 20260505181358 | 63 | 193 | 5.0 | 10.0 | 0.00 | 1.01 | 1.01 | 93 | 1008.7 |
| 20260505180858 | 63 | 198 | 6.0 | 10.0 | 0.00 | 1.01 | 1.01 | 93 | 1008.7 |
| 20260505180357 | 63 | 202 | 6.0 | 10.0 | 0.00 | 1.01 | 1.01 | 93 | 1008.8 |
| 20260505175857 | 63 | 159 | 4.0 | 11.0 | 0.00 | 1.01 | 1.01 | 93 | 1008.8 |
| 20260505175356 | 63 | 150 | 4.0 | 11.0 | 0.00 | 1.01 | 1.01 | 93 | 1008.9 |
| 20260505174856 | 63 | 198 | 6.0 | 10.0 | 0.00 | 1.01 | 1.01 | 93 | 1008.9 |
| 20260505174356 | 63 | 168 | 10.0 | 10.0 | 0.00 | 1.01 | 1.01 | 93 | 1008.9 |
| 20260505173855 | 63 | 184 | 4.0 | 11.0 | 0.00 | 1.01 | 1.01 | 93 | 1009.0 |
| 20260505172855 | 62 | 195 | 3.0 | 9.0 | 0.01 | 1.01 | 1.01 | 93 | 1008.9 |
| 20260505172354 | 62 | 196 | 3.0 | 10.0 | 0.01 | 1.01 | 1.01 | 94 | 1008.9 |
| 20260505171354 | 62 | 177 | 4.0 | 10.0 | 0.05 | 1.01 | 1.01 | 93 | 1009.0 |
| 20260505170854 | 62 | 171 | 5.0 | 10.0 | 0.08 | 1.01 | 1.01 | 93 | 1009.1 |
| 20260505165352 | 61 | 189 | 10.0 | 13.0 | 0.10 | 1.01 | 1.01 | 94 | 1009.1 |
| 20260505164852 | 61 | 105 | 4.0 | 11.0 | 0.11 | 1.01 | 1.01 | 94 | 1009.3 |
| 20260505164352 | 61 | 172 | 6.0 | 15.0 | 0.16 | 1.01 | 1.01 | 94 | 1009.5 |
| 20260505163852 | 61 | 189 | 6.0 | 15.0 | 0.21 | 1.01 | 1.01 | 94 | 1009.7 |
| 20260505163351 | 61 | 136 | 5.0 | 15.0 | 0.35 | 1.00 | 1.00 | 94 | 1009.9 |
| 20260505162851 | 61 | 206 | 4.0 | 11.0 | 0.44 | 1.00 | 1.00 | 94 | 1009.8 |
| 20260505162351 | 61 | 182 | 7.0 | 12.0 | 0.46 | 1.00 | 1.00 | 94 | 1009.8 |
| 20260505161921 | 60 | 198 | 4.0 | 14.0 | 0.46 | 0.98 | 0.98 | 94 | 1009.8 |
| 20260505161421 | 60 | 155 | 6.0 | 14.0 | 0.46 | 0.96 | 0.96 | 94 | 1009.7 |
| 20260505160920 | 60 | 132 | 9.0 | 12.0 | 0.46 | 0.93 | 0.93 | 94 | 1009.9 |
| 20260505160420 | 60 | 190 | 3.0 | 12.0 | 0.48 | 0.92 | 0.92 | 94 | 1010.3 |